Location: Olmo
(45.9667°N, 9.6500°E)
Time: 06:54:56
(UTC+00:00)

Daily predictions for brighter satellites

Satellite Brightness Start Highest point End
(mag) Time Altitude Azimuth Time Altitude Azimuth Time Altitude Azimuth
Okean O Rocket 1.7 16:35:00 10° SSE 16:39:21 58° ENE 16:43:43 10° N
YAOGAN 6 3.6 16:37:46 10° S 16:41:13 51° W 16:44:45 10° NNW
SMAP 3.0 16:36:42 10° SSE 16:41:21 81° ENE 16:46:02 10° NNW
Cosmos 773 Rocket 4.1 16:36:52 10° NNW 16:41:55 51° ENE 16:46:54 10° SE
SeaSat 1 4.1 16:37:46 10° N 16:42:01 29° NW 16:46:15 10° WSW
Cosmos 1626 2.1 16:38:19 10° S 16:42:01 84° E 16:45:44 10° N
CZ-4B R/B 3.2 16:37:52 10° SSE 16:43:23 77° ENE 16:49:02 10° NNW
SL-24 R/B 4.1 16:39:39 10° SSE 16:43:57 72° ENE 16:48:34 10° N
Aureole 2 Rocket 4.2 16:45:47 10° ESE 16:46:41 11° E 16:47:35 10° E
AQUARIUS 4.1 16:43:48 10° SSE 16:48:17 83° ENE 16:52:48 10° NNW
Cosmos 2297 Rocket 4.4 16:45:52 10° W 16:49:36 18° NW 16:53:22 10° N
Cosmos 1603 3.9 16:45:19 10° NNW 16:51:03 81° WSW 16:56:47 10° SSE
Meteor 2-10 Rocket 4.2 16:46:38 10° N 16:51:43 35° ENE 16:56:33 10° SE
CZ-2D R/B 4.0 16:52:46 10° SE 16:56:10 30° ENE 16:59:33 10° N
Cosmos 1606 Rocket 3.6 16:52:42 10° N 16:57:03 61° E 17:01:25 10° SSE
H-2A R/B 2.1 16:54:11 10° NNE 16:58:40 87° E 17:03:02 10° SSW
YAOGAN 1 3.8 16:55:44 10° ESE 16:58:56 20° ENE 17:02:08 10° NNE
USA 234 4.2 16:53:16 10° ENE 16:59:00 34° N 17:04:45 10° WNW
Cosmos 1892 Rocket 4.1 16:55:04 10° SSE 16:59:04 37° E 17:03:04 10° NNE
FengYun 1-2 T 4.3 16:55:23 10° SSE 17:00:56 88° ENE 17:06:35 10° NNW
ATLAS 5 CENTAUR R/B 1.8 16:56:59 10° SW 17:00:57 65° NW 17:05:29 10° NE
CZ-4C R/B 4.0 16:59:30 10° N 17:02:30 41° WNW 17:05:30 10° SW
SL-14 R/B 3.5 17:00:40 10° SSW 17:04:30 72° W 17:08:26 10° N
Helios 1A Rocket 4.3 17:01:58 10° ESE 17:04:49 18° ENE 17:07:41 10° NNE
RESURS DK-1 3.7 17:02:28 10° SW 17:06:21 38° NW 17:10:15 10° NNE
MOS 1 Rocket 3.8 17:04:10 10° NNE 17:08:02 31° E 17:11:50 10° SSE
ATLAS 3B R/B 3.8 17:02:12 10° NW 17:08:55 51° WSW 17:15:53 10° SSE
Cosmos 2228 3.0 17:04:46 10° N 17:09:03 89° WSW 17:13:20 10° S
BREEZE-M DEB (TANK) 4.4 17:08:12 10° W 17:10:31 21° SSW 17:13:10 10° SSE
Cosmos 2142 Rocket 4.5 17:04:57 10° N 17:11:10 87° E 17:17:17 10° S
Meteor 2-5 Rocket 3.9 17:07:51 10° SSW 17:13:25 74° WNW 17:18:58 10° N
SKYMED 2 3.8 17:09:48 10° NNE 17:14:02 48° E 17:18:14 10° S
CZ-4C R/B 3.6 17:10:07 10° W 17:14:47 31° NNW 17:20:19 10° NNE
Cosmos 1538 Rocket 4.0 17:10:31 10° NNW 17:15:38 57° ENE 17:20:42 10° SE
Aureole 3 4.1 17:13:00 10° NNE 17:15:48 21° ENE 17:18:16 10° ESE
SJ 16-02 2.3 17:12:41 10° SSE 17:16:21 26° E 17:18:56 16° NE
CZ-3B R/B 2.5 17:14:55 10° NW 17:17:08 30° NNE 17:20:09 16° E
Nadezhda 4 Rocket 4.3 17:11:56 10° SSE 17:17:44 42° E 17:23:30 10° NNE
Cosmos 1777 Rocket 4.0 17:14:20 10° S 17:19:33 71° ESE 17:24:50 10° NNE
Cosmos 2263 Rocket 2.9 17:16:04 10° SW 17:21:37 53° WNW 17:27:11 10° NNE
YAOGAN 3 4.5 17:17:22 10° SSE 17:21:42 75° ENE 17:26:04 10° N
Cosmos 1455 2.8 17:23:02 10° N 17:26:30 33° ENE 17:29:58 10° SE
Cosmos 2058 Rocket 3.0 17:24:01 10° N 17:28:31 65° E 17:32:59 10° SSE
Cosmos 1300 4.1 17:27:05 10° NNW 17:30:41 40° W 17:34:16 10° SSW
X-37B 2.1 17:29:31 10° SSW 17:32:12 25° SSE 17:33:14 21° ESE
ARGOS 3.6 17:32:21 10° SE 17:37:11 36° ENE 17:42:03 10° N
Okean 1-7 Rocket 3.6 17:36:02 10° S 17:40:32 69° E 17:45:06 10° NNE
CREW DRAGON DEMO-1 DEB 3.4 17:38:57 10° NW 17:41:41 36° NNE 17:41:52 35° NNE
Lacrosse 5 1.9 17:36:52 10° NW 17:41:53 61° NE 17:44:59 23° ESE
NOSS 3-1 (C) 4.4 17:35:26 10° NNW 17:42:12 41° NE 17:47:11 21° E
Cosmos 1726 Rocket 4.3 17:39:44 10° NNW 17:44:00 54° W 17:48:16 10° S
ISS -3.2 17:41:06 10° SW 17:44:19 43° SE 17:45:00 37° ESE
Cosmos 1939 Rocket 3.9 17:40:19 10° S 17:44:20 50° W 17:48:20 10° NNW
ERS-2 2.0 17:42:03 17° NNE 17:44:41 63° ESE 17:48:17 10° S
CZ-2C R/B 3.6 17:45:49 26° E 17:46:24 26° E 17:51:02 10° SSE
PSLV R/B 4.0 17:43:31 14° NNE 17:47:04 56° E 17:51:12 10° S
CSL-04 Debris 4.4 17:42:10 10° SE 17:47:14 44° ENE 17:52:20 10° N
EXPRESS MD2 4.2 17:39:22 10° WNW 17:47:37 77° SSW 17:50:21 22° SE
COSMOS 2455 2.8 17:42:55 10° SSW 17:48:58 87° WNW 17:54:02 15° NNE
Cosmos 1626 Rocket 3.7 17:47:37 10° SSE 17:51:47 47° E 17:54:01 25° NNE
Cosmos 1844 3.8 17:48:24 10° S 17:53:53 54° ESE 17:57:10 24° NE
Cosmos 2026 Rocket 4.4 17:49:18 10° SSE 17:54:50 38° E 18:00:27 10° NNE
IRS-1C Rocket 4.2 17:49:49 10° S 17:55:04 78° WSW 18:00:22 10° NNW
Cosmos 1833 Rocket 4.0 17:51:00 10° N 17:54:41 21° NE 17:54:41 21° NE
CZ-4 R/B 1.3 17:52:27 10° SSE 17:56:35 87° ENE 18:00:39 10° NNW
Cosmos 2082 Rocket 4.0 17:53:45 10° N 17:55:56 14° NNE 17:55:56 14° NNE
NOAA 15 4.5 17:52:39 10° SSE 17:57:53 78° ENE 18:03:10 10° NNW
USA 229 DEB 4.4 17:52:27 10° NNW 17:59:06 38° NE 18:01:49 29° ENE
USA 229 4.4 17:52:33 10° NNW 17:59:12 38° NE 18:01:52 29° ENE
COSMO-SKYMED 1 3.3 17:57:54 10° N 18:02:09 53° WNW 18:06:22 10° SSW
DMSP B5D1-3 4.5 18:01:30 17° NNE 18:05:20 59° E 18:10:21 10° S
USA 267 3.9 18:04:12 29° E 18:05:54 34° SE 18:11:42 10° SSW
CZ-4B R/B 3.6 18:09:21 10° N 18:12:13 26° WNW 18:15:01 10° SW
Okean-O 2.8 18:08:17 10° S 18:12:42 73° WSW 18:17:10 10° NNW
CZ-2C R/B 4.0 18:09:09 10° S 18:14:16 52° W 18:19:43 10° NNW
NOSS 3-1 (A) 4.4 18:07:57 10° NNW 18:14:46 41° NE 18:16:57 35° ENE
Cosmos 1844 Rocket 2.7 18:10:12 10° SSW 18:15:53 85° WNW 18:19:24 24° NNE
H-2A R/B 2.0 18:11:41 10° S 18:16:39 80° WSW 18:21:46 10° NNW
Cosmos 923 Rocket 3.9 18:11:59 10° NNW 18:17:22 85° ENE 18:22:41 10° SSE
Meteor 1-21 Rocket 4.1 18:12:49 10° S 18:18:21 89° W 18:23:56 10° N
Cosmos 1689 Rocket 3.5 18:20:01 34° SW 18:20:01 34° SW 18:21:52 10° SSW
Aureole 2 Rocket 3.4 18:16:25 10° SW 18:19:15 37° WNW 18:19:28 36° NW
Cosmos 2195 Rocket 4.4 18:14:05 10° S 18:20:21 70° E 18:26:40 10° NNE
ATLAS 2AS CENTAUR R/B 4.5 18:13:51 10° W 18:20:22 27° NNW 18:25:31 14° NNE
Cosmos 158 Rocket 4.1 18:17:24 10° NNW 18:22:45 80° WSW 18:28:08 10° SSE
Meteor 2-8 Rocket 4.3 18:17:02 10° N 18:23:08 70° E 18:29:12 10° SSE
Cosmos 1898 Rocket 3.7 18:19:03 10° S 18:23:42 50° ESE 18:23:42 50° ESE
Cosmos 1680 Rocket 3.3 18:19:29 10° NNW 18:24:46 76° ENE 18:26:36 41° SE
Cosmos 1627 Rocket 4.3 18:24:05 10° S 18:30:12 73° E 18:36:28 10° NNE
Cosmos 2098 Rocket 4.3 18:24:37 10° S 18:31:31 62° E 18:38:51 10° NNE
Cosmos 1602 Rocket 3.4 18:27:30 10° S 18:31:35 80° SSW 18:31:35 80° SSW
Cosmos 1818 3.8 18:27:37 10° SW 18:33:01 68° NW 18:34:52 41° NNE
YAOGAN 1 3.7 18:30:37 10° S 18:34:44 44° W 18:38:54 10° NNW
Cosmos 1428 Rocket 4.3 18:28:58 10° S 18:35:12 74° E 18:41:32 10° NNE
CSL-04 Rocket 3.7 18:33:05 10° S 18:38:28 77° WSW 18:43:58 10° NNW
Helios 1A Rocket 3.9 18:35:39 10° S 18:39:38 46° W 18:43:39 10° NNW
USA 234 3.5 18:40:19 46° NE 18:41:11 49° NNE 18:47:26 10° NW
Cosmos 1092 Rocket 4.1 18:39:12 10° SSW 18:45:23 72° W 18:51:34 10° N
ATLAS 5 CENTAUR R/B 3.9 18:43:52 10° WNW 18:46:36 16° NNW 18:47:38 15° N
Iridium 4 Rocket 3.8 18:41:16 10° N 18:46:58 74° W 18:52:13 10° S
Cosmos 1812 Rocket 4.4 18:45:44 10° NNW 18:48:54 43° NW 18:48:54 43° NW
Cosmos 2344 4.2 18:45:26 10° NW 18:54:40 73° NE 18:59:35 41° ESE
SJ 16-02 2.9 18:50:49 10° SW 18:54:48 33° WNW 18:55:59 28° NNW
Cosmos 2112 Rocket 4.3 18:56:59 10° NNW 19:02:11 62° WSW 19:02:18 62° WSW
CZ-4C R/B 4.4 19:01:39 10° NW 19:05:29 17° N 19:06:30 16° N
X-37B 4.1 19:05:22 10° WSW 19:05:31 11° WSW 19:05:31 11° WSW
COSMOS 2406 4.3 19:11:22 10° NNW 19:14:49 38° NNW 19:14:49 38° NNW
ISS -0.2 19:17:53 10° W 19:17:58 10° W 19:17:58 10° W
Lacrosse 5 3.5 19:20:14 10° WNW 19:24:15 29° WSW 19:24:15 29° WSW
CZ-2C R/B 3.5 19:27:19 48° W 19:27:19 48° W 19:32:16 10° SW
NOSS 3-1 (C) 4.2 19:26:08 10° NW 19:33:39 68° WSW 19:34:39 63° SSW
Cosmos 1833 Rocket 4.4 19:34:10 10° NNW 19:36:25 25° NNW 19:36:25 25° NNW
Cosmos 2082 Rocket 4.3 19:36:27 10° NNW 19:37:48 18° NNW 19:37:48 18° NNW
USA 267 4.1 19:51:34 45° WSW 19:51:34 45° WSW 19:55:51 10° WSW
USA 229 DEB 4.3 19:43:19 10° NW 19:49:18 59° WNW 19:49:18 59° WNW
USA 229 4.3 19:43:25 10° NW 19:49:21 59° WNW 19:49:21 59° WNW
